Torna al catalogo

NOAA 16 DEB

AttivoSSO
NORAD 41288·DEBRIS·🇺🇸 United States

Lanciato Sep 21, 2000 da Vandenberg Space Force Base

Loading…

Prossimi Passaggi (prossime 24 ore)

TLE

AggiornatoSource: Space-Track

Epoca: Sep 13, 2026, 02:23 UTC

1 41288U 00055GQ  26256.09971919  .00004961  00000-0  16211-2 0  9992
2 41288  98.9001   8.0101 0020371 321.7050  38.2689 14.38906261552988

Traccia NOAA 16 DEB in tempo reale con AllMySat

Download on the App Store